Simultaneous Nadir Overpasses (SNOs) Predictions

Prediction of SNOs between METOP-B and TERRA Satellite Orbit:

Table of predicted SNOs for the next 14.0 days since TLE Epoch: 1/23/2022
Index Date (METOP-B) Time (METOP-B) Lat,Lon (METOP-B) SZA (METOP-B ) Date (TERRA) Time (TERRA) Lat,Lon (TERRA) SZA (TERRA ) Distance(km) Time Diff (sec)
1 01/24/2022 17:22:07 -81.25, 143.19 77.67 01/24/2022 17:22:42 -81.26, 143.10 77.67 1.72 35
2 01/24/2022 18:12:47 81.26, -49.20 102.36 01/24/2022 18:12:08 81.26, -49.18 102.34 0.37 39
3 01/27/2022 12:56:28 -81.25,-150.60 78.42 01/27/2022 12:56:54 -81.25,-150.63 78.41 0.43 26
4 01/27/2022 13:47:08 81.25, 16.96 101.61 01/27/2022 13:46:20 81.25, 17.07 101.59 1.81 48
5 01/30/2022 08:30:47 -81.25, -84.04 79.16 01/30/2022 08:31:04 -81.26, -84.04 79.15 0.56 17
6 01/30/2022 09:21:27 81.26, 83.48 100.86 01/30/2022 09:20:30 81.26, 83.62 100.85 2.43 57
7 02/02/2022 04:05:08 -81.25, -17.88 79.99 02/02/2022 04:05:16 -81.24, -17.90 79.99 0.77 8
8 02/02/2022 04:55:47 81.26, 149.97 100.06 02/02/2022 04:54:41 81.26, 150.11 100.05 2.40 66
9 02/04/2022 22:48:48 81.24,-119.20 99.14 02/04/2022 22:50:00 81.24,-119.10 99.18 1.61 72
10 02/04/2022 23:39:28 -81.25, 48.62 80.82 02/04/2022 23:39:27 -81.24, 48.55 80.83 1.58 1



Historial Predications of SNOs between METOP-B and TERRA
